• In Italy
  • List of Countries
  • For 7 days
  • Water Temperature
  • Satellite Maps
  • Weather Map
  • Weather Widgets
  • user-avatar
    Login

    Hourly Weather Kendari

    Today, 24 September, Sunday

    Time Temperature Precipitation Wind Pressure Humidity
    00:00 +25°C° 0.2 mm 1 mps 746 mmHg 92%
    01:00 +25°C° 0.2 mm 1 mps 746 mmHg 92%
    02:00 +25°C° 0 mm 1 mps 746 mmHg 92%
    03:00 +25°C° 0.1 mm 1 mps 746 mmHg 92%
    04:00 +25°C° 0.1 mm 1 mps 746 mmHg 92%
    05:00 +25°C° 0.1 mm 1 mps 746 mmHg 92%
    06:00 +26°C° 0.2 mm 1 mps 746 mmHg 88%
    07:00 +27°C° 0.2 mm 1 mps 746 mmHg 83%
    08:00 +29°C° 0 mm 1 mps 747 mmHg 81%
    09:00 +30°C° 1.3 mm 1 mps 746 mmHg 78%
    10:00 +31°C° 1.3 mm 1 mps 746 mmHg 75%
    11:00 +30°C° 1.3 mm 0 mps 746 mmHg 72%
    12:00 +31°C° 1.4 mm 1 mps 745 mmHg 75%
    13:00 +31°C° 1.4 mm 2 mps 745 mmHg 78%
    14:00 +29°C° 0 mm 3 mps 745 mmHg 83%
    15:00 +29°C° 1.5 mm 3 mps 745 mmHg 86%
    16:00 +28°C° 1.5 mm 3 mps 745 mmHg 89%
    17:00 +27°C° 1.5 mm 4 mps 745 mmHg 92%
    18:00 +27°C° 1.3 mm 3 mps 745 mmHg 92%
    19:00 +26°C° 1.3 mm 3 mps 746 mmHg 93%
    20:00 +26°C° 0 mm 2 mps 746 mmHg 94%
    21:00 +26°C° 0.3 mm 2 mps 746 mmHg 94%
    22:00 +26°C° 0.3 mm 2 mps 746 mmHg 94%
    23:00 +25°C° 0.3 mm 1 mps 746 mmHg 94%

    Tomorrow, 25 September, Monday

    Time Temperature Precipitation Wind Pressure Humidity
    00:00 +25°C° 0.1 mm 1 mps 746 mmHg 94%
    01:00 +25°C° 0.1 mm 1 mps 746 mmHg 94%
    02:00 +25°C° 0.1 mm 1 mps 746 mmHg 94%
    03:00 +25°C° 0 mm 1 mps 746 mmHg 94%
    04:00 +25°C° 0 mm 1 mps 746 mmHg 94%
    05:00 +23°C° 0 mm 0 mps 746 mmHg 94%
    06:00 +24°C° 0 mm 0 mps 746 mmHg 90%
    07:00 +25°C° 0 mm 0 mps 746 mmHg 86%
    08:00 +26°C° 0 mm 0 mps 747 mmHg 82%
    09:00 +28°C° 0 mm 0 mps 746 mmHg 75%
    10:00 +30°C° 0 mm 0 mps 746 mmHg 67%
    11:00 +33°C° 0 mm 1 mps 746 mmHg 59%
    12:00 +33°C° 0.6 mm 1 mps 746 mmHg 63%
    13:00 +32°C° 0.6 mm 2 mps 745 mmHg 68%
    14:00 +31°C° 0.6 mm 2 mps 745 mmHg 72%
    15:00 +30°C° 0.7 mm 2 mps 745 mmHg 77%
    16:00 +30°C° 0.7 mm 2 mps 744 mmHg 81%
    17:00 +29°C° 0.7 mm 2 mps 744 mmHg 85%
    18:00 +28°C° 0.3 mm 2 mps 745 mmHg 87%
    19:00 +27°C° 0.3 mm 2 mps 745 mmHg 89%
    20:00 +26°C° 0.3 mm 2 mps 746 mmHg 91%
    21:00 +26°C° 0 mm 2 mps 746 mmHg 91%
    22:00 +26°C° 0 mm 2 mps 746 mmHg 92%
    23:00 +26°C° 0 mm 2 mps 746 mmHg 92%

    Day after tomorrow, 26 September, Tuesday

    Time Temperature Precipitation Wind Pressure Humidity
    00:00 +26°C° 0 mm 1 mps 746 mmHg 93%
    01:00 +26°C° 0 mm 1 mps 746 mmHg 93%
    02:00 +26°C° 0 mm 1 mps 745 mmHg 93%
    03:00 +25°C° 0 mm 1 mps 746 mmHg 93%
    04:00 +25°C° 0 mm 1 mps 746 mmHg 94%
    05:00 +25°C° 0 mm 1 mps 746 mmHg 94%
    06:00 +26°C° 0 mm 1 mps 746 mmHg 90%
    07:00 +27°C° 0 mm 1 mps 747 mmHg 86%
    08:00 +29°C° 0 mm 1 mps 747 mmHg 81%
    09:00 +30°C° 0 mm 1 mps 747 mmHg 74%
    10:00 +31°C° 0 mm 1 mps 747 mmHg 67%
    11:00 +32°C° 0 mm 2 mps 747 mmHg 60%
    12:00 +32°C° 0 mm 2 mps 747 mmHg 59%
    13:00 +32°C° 0 mm 2 mps 746 mmHg 59%
    14:00 +32°C° 0 mm 2 mps 745 mmHg 58%
    15:00 +31°C° 0 mm 2 mps 745 mmHg 63%
    16:00 +31°C° 0 mm 2 mps 745 mmHg 68%
    17:00 +30°C° 0 mm 3 mps 745 mmHg 73%
    18:00 +28°C° 0 mm 2 mps 745 mmHg 78%
    19:00 +27°C° 0 mm 2 mps 746 mmHg 83%
    20:00 +26°C° 0 mm 2 mps 747 mmHg 88%
    21:00 +26°C° 0 mm 1 mps 747 mmHg 90%
    22:00 +26°C° 0 mm 1 mps 747 mmHg 91%
    23:00 +25°C° 0 mm 1 mps 747 mmHg 92%

    27 September, Wednesday

    Time Temperature Precipitation Wind Pressure Humidity
    00:00 +25°C° 0 mm 1 mps 747 mmHg 92%
    01:00 +25°C° 0 mm 1 mps 746 mmHg 93%
    02:00 +25°C° 0 mm 1 mps 746 mmHg 94%
    03:00 +25°C° 0 mm 1 mps 746 mmHg 94%
    04:00 +24°C° 0 mm 1 mps 746 mmHg 94%
    05:00 +24°C° 0 mm 1 mps 746 mmHg 94%
    06:00 +26°C° 0 mm 1 mps 747 mmHg 88%
    07:00 +27°C° 0 mm 1 mps 747 mmHg 82%
    08:00 +27°C° 0 mm 0 mps 748 mmHg 76%
    09:00 +30°C° 0 mm 1 mps 748 mmHg 70%
    10:00 +31°C° 0 mm 1 mps 748 mmHg 65%
    11:00 +32°C° 0 mm 1 mps 747 mmHg 59%
    12:00 +32°C° 0 mm 1 mps 747 mmHg 57%
    13:00 +33°C° 0 mm 1 mps 746 mmHg 56%
    14:00 +34°C° 0 mm 2 mps 745 mmHg 54%
    15:00 +32°C° 0 mm 2 mps 745 mmHg 59%
    16:00 +31°C° 0 mm 2 mps 745 mmHg 65%
    17:00 +30°C° 0 mm 3 mps 745 mmHg 70%
    18:00 +29°C° 0 mm 3 mps 746 mmHg 75%
    19:00 +28°C° 0 mm 3 mps 746 mmHg 80%
    20:00 +26°C° 0 mm 3 mps 747 mmHg 86%
    21:00 +26°C° 0 mm 2 mps 747 mmHg 87%
    22:00 +26°C° 0 mm 2 mps 747 mmHg 88%
    23:00 +25°C° 0 mm 1 mps 748 mmHg 90%

    28 September, Thursday

    Time Temperature Precipitation Wind Pressure Humidity
    00:00 +25°C° 0 mm 1 mps 747 mmHg 91%
    01:00 +25°C° 0 mm 1 mps 746 mmHg 92%
    02:00 +25°C° 0 mm 1 mps 746 mmHg 93%
    03:00 +24°C° 0 mm 1 mps 746 mmHg 93%
    04:00 +24°C° 0 mm 1 mps 746 mmHg 94%
    05:00 +24°C° 0 mm 1 mps 746 mmHg 94%
    06:00 +26°C° 0 mm 1 mps 747 mmHg 87%
    07:00 +27°C° 0 mm 1 mps 747 mmHg 80%
    08:00 +27°C° 0 mm 0 mps 748 mmHg 73%
    09:00 +30°C° 0 mm 1 mps 748 mmHg 68%
    10:00 +31°C° 0 mm 1 mps 747 mmHg 62%
    11:00 +32°C° 0 mm 1 mps 747 mmHg 57%
    12:00 +32°C° 0 mm 1 mps 746 mmHg 56%
    13:00 +34°C° 0 mm 2 mps 745 mmHg 56%
    14:00 +34°C° 0 mm 2 mps 745 mmHg 55%
    15:00 +32°C° 0 mm 2 mps 745 mmHg 61%
    16:00 +31°C° 0 mm 2 mps 745 mmHg 67%
    17:00 +30°C° 0 mm 3 mps 745 mmHg 72%
    18:00 +29°C° 0 mm 3 mps 745 mmHg 77%
    19:00 +28°C° 0 mm 3 mps 746 mmHg 83%
    20:00 +27°C° 0 mm 2 mps 746 mmHg 88%
    21:00 +26°C° 0.2 mm 2 mps 747 mmHg 89%
    22:00 +26°C° 0.2 mm 2 mps 747 mmHg 90%
    23:00 +26°C° 0.2 mm 1 mps 747 mmHg 91%

    29 September, Friday

    Time Temperature Precipitation Wind Pressure Humidity
    00:00 +26°C° 0.3 mm 1 mps 746 mmHg 92%
    01:00 +26°C° 0.3 mm 1 mps 746 mmHg 92%
    02:00 +25°C° 0.3 mm 1 mps 745 mmHg 93%
    03:00 +25°C° 0 mm 1 mps 746 mmHg 93%
    04:00 +25°C° 0 mm 1 mps 746 mmHg 93%
    05:00 +25°C° 0 mm 1 mps 746 mmHg 93%
    06:00 +26°C° 0.1 mm 1 mps 747 mmHg 88%
    07:00 +28°C° 0.1 mm 1 mps 747 mmHg 84%
    08:00 +29°C° 0.1 mm 1 mps 748 mmHg 79%
    09:00 +30°C° 0 mm 1 mps 748 mmHg 72%
    10:00 +31°C° 0 mm 1 mps 747 mmHg 66%
    11:00 +34°C° 0 mm 2 mps 747 mmHg 60%
    12:00 +34°C° 0.1 mm 2 mps 746 mmHg 61%
    13:00 +32°C° 0.1 mm 2 mps 745 mmHg 62%
    14:00 +33°C° 0.1 mm 3 mps 745 mmHg 63%
    15:00 +31°C° 0 mm 3 mps 745 mmHg 67%
    16:00 +30°C° 0 mm 3 mps 745 mmHg 71%
    17:00 +29°C° 0 mm 3 mps 745 mmHg 76%
    18:00 +29°C° 0 mm 3 mps 746 mmHg 80%
    19:00 +28°C° 0 mm 2 mps 746 mmHg 83%
    20:00 +27°C° 0 mm 2 mps 747 mmHg 87%
    21:00 +27°C° 0 mm 2 mps 747 mmHg 88%
    22:00 +26°C° 0 mm 2 mps 747 mmHg 90%
    23:00 +26°C° 0 mm 1 mps 747 mmHg 91%
    Show more